Helicity
62 60 59 58 61 52 57 62 53 48 51 50 58 88 119 116 97 88 114 50 85 128 96 87 87 98 90 98 113 73 91 29 12 68 37 41 30 7 17 48 -6 13 11 74 72
77 65 64 64 75 61 52 69 71 55 55 57 78 103 121 118 107 125 69 51 79 95 65 84 129 97 124 108 66 66 63 40 33 4 37 38 7 45 12 72 73 21 59 95 33
75 83 66 68 73 86 61 59 87 69 63 59 79 88 98 90 75 21 50 72 89 96 89 32 34 87 144 52 -2 -11 20 19 -3 37 7 23 9 13 35 54 120 58 54 37 25
78 75 81 78 76 83 87 64 71 91 68 73 72 72 81 65 13 5 39 71 76 77 82 52 128 201 62 8 2 48 11 10 12 37 25 17 3 31 3 -8 -7 53 46 36 20
41 71 80 83 88 83 95 90 71 82 74 68 66 50 65 104 25 -15 10 45 68 86 109 90 74 12 11 10 13 24 -11 8 16 21 27 16 19 -3 12 -13 3 36 50 45 22
35 38 45 78 94 98 101 116 94 80 70 45 38 31 59 59 -1 -23 11 51 64 72 47 55 26 54 87 26 60 -19 28 13 29 40 29 21 35 39 53 28 8 58 70 50 30
26 40 44 50 72 113 117 133 130 94 55 19 1 10 55 22 3 -29 -38 27 42 49 35 -1 38 94 33 51 5 47 53 52 32 60 32 36 85 83 62 60 33 50 54 43 16
21 26 44 60 66 94 138 156 129 124 42 -12 -17 7 44 23 -6 -26 -29 1 -0 4 12 4 23 85 127 37 -46 76 48 50 49 28 68 49 52 101 79 80 56 53 44 27 19
27 20 26 56 69 87 126 160 101 98 36 8 -7 10 28 11 -7 -27 -37 -15 -18 -2 3 9 26 114 39 185 83 14 8 13 68 68 40 43 26 91 92 73 96 60 63 24 20
29 25 19 37 58 84 140 61 49 54 24 24 51 35 44 15 41 25 -25 -13 -16 -20 41 56 83 87 90 85 -41 35 20 10 19 40 60 64 65 65 119 85 85 97 81 68 57
27 24 21 20 41 67 131 6 3 -2 9 28 48 22 55 94 64 26 -4 -20 -29 2 51 42 21 7 223 19 15 44 27 13 28 41 27 31 52 39 152 117 88 144 92 109 74
34 38 28 15 32 55 -6 -11 62 96 43 27 71 69 84 77 33 28 51 28 33 20 39 25 -0 23 44 17 24 25 23 36 7 19 28 34 21 14 100 133 104 76 119 99 82
47 46 34 17 10 -11 6 -0 51 56 -7 55 35 44 36 52 18 21 58 27 37 13 38 24 12 39 7 19 22 30 -20 12 23 21 22 22 22 6 13 130 107 71 65 79 108
58 50 24 1 -34 -15 -17 -15 44 24 -26 90 21 63 40 61 16 -0 83 14 14 9 13 18 20 12 51 23 16 33 69 10 13 23 24 31 94 149 40 71 107 124 60 57 88
56 42 18 16 12 -5 -47 18 35 26 -46 30 68 71 26 -6 75 44 -17 53 25 18 18 8 8 20 -7 7 42 31 33 -0 20 16 37 88 71 41 14 74 116 144 99 37 42
43 26 4 25 16 -28 10 31 41 -2 4 34 -5 2 35 36 -8 45 23 9 8 10 11 24 33 23 46 31 28 32 2 8 16 34 33 88 69 79 62 28 17 119 115 67 30
25 22 30 28 -19 -9 25 54 43 30 -16 20 -16 -7 -14 -2 19 13 15 36 30 26 1 -5 10 8 38 13 5 21 -8 -6 15 -33 -23 105 -3 80 124 37 19 6 64 116 44
7 28 64 10 -7 2 25 39 23 -45 -33 1 -8 -19 7 8 23 1 8 12 47 -12 4 17 21 49 45 54 30 27 11 7 13 9 98 62 4 65 22 27 13 7 6 71 64
16 55 26 -2 -18 -0 29 28 -44 -29 -19 -25 2 8 10 41 -27 6 27 -10 66 76 40 23 -2 3 38 22 21 17 19 18 28 18 4 1 58 28 78 37 21 23 -7 20 61
21 29 17 -1 11 21 21 -6 -40 -46 -33 -11 -4 -6 -19 -10 27 16 -6 98 35 55 65 41 41 30 22 32 27 35 35 44 55 6 11 14 27 6 80 47 51 28 14 8 30
37 40 30 14 32 24 14 23 9 -9 -42 -28 -38 -34 -36 -51 -27 -36 -40 80 110 89 65 53 38 28 21 55 14 -8 40 44 37 19 13 -8 10 1 96 84 42 48 80 16 15
23 35 11 27 27 7 13 27 9 -6 -1 -14 -16 -27 -24 -24 -18 -24 -18 27 136 149 89 55 82 51 33 23 27 48 41 24 62 11 37 17 3 140 24 61 60 70 72 49 60
-12 14 10 41 9 56 59 45 36 32 43 28 16 19 12 -6 23 20 28 92 131 119 151 187 86 59 24 30 20 81 31 21 25 30 40 34 19 18 65 77 120 133 74 71 62
-9 12 38 32 53 38 47 66 46 79 36 51 28 27 11 15 7 36 32 30 94 33 129 107 114 80 63 37 49 50 65 55 51 37 31 47 45 56 54 75 111 78 110 94 103
-11 37 36 47 58 49 53 79 69 95 108 42 57 61 93 80 72 61 37 45 38 75 75 63 84 91 65 55 52 53 45 48 48 45 45 37 35 46 48 96 106 74 66 86 98
16 23 26 35 35 40 101 135 63 129 81 82 93 106 99 56 71 58 76 89 85 74 59 47 78 74 96 74 87 62 61 65 45 38 38 45 46 34 63 71 41 34 60 50 84
6 19 27 68 56 68 146 108 96 80 76 90 103 81 62 66 84 57 45 39 54 64 55 57 84 98 98 53 41 88 61 52 52 43 55 55 41 29 39 44 32 35 67 33 62
Wind_Speed
33 33 32 32 32 32 31 29 27 26 25 24 21 22 23 23 23 32 34 33 43 51 48 47 43 38 32 29 34 28 29 31 23 36 34 31 28 27 30 26 21 27 23 20 26
40 38 37 37 36 37 36 34 32 30 29 27 23 23 23 23 30 36 37 40 50 55 48 44 40 37 34 34 35 30 27 30 24 31 36 32 29 29 26 25 25 23 18 22 31
47 45 42 40 41 41 40 39 37 35 34 31 27 25 25 26 31 32 44 48 55 57 40 29 29 37 36 33 30 19 30 22 34 24 25 35 31 31 30 22 29 32 22 30 33
51 50 49 47 44 45 45 44 42 40 37 35 32 28 28 32 38 21 48 51 55 50 39 34 37 39 38 16 27 30 35 36 34 37 36 34 33 30 28 22 26 39 47 46 47
45 52 53 53 51 48 48 48 48 46 43 40 36 33 31 35 24 29 48 52 51 44 41 31 22 22 27 32 35 29 33 31 30 30 30 33 32 29 34 31 42 43 55 52 53
44 47 49 55 55 54 52 52 52 51 48 45 41 37 36 29 25 24 50 51 46 44 35 32 23 22 26 27 19 32 30 28 29 29 30 29 30 30 37 40 47 52 55 54 56
48 48 49 51 53 57 56 55 54 53 50 46 43 38 44 33 29 30 44 49 45 43 37 35 34 25 25 26 31 31 28 34 32 30 30 29 30 31 37 42 47 52 54 54 55
42 43 50 52 53 55 57 57 53 51 46 38 33 38 41 32 34 33 46 48 45 44 42 39 40 32 34 31 37 36 32 37 38 32 30 28 30 31 36 41 44 50 53 55 56
41 35 38 47 48 53 55 56 51 45 39 27 31 35 44 31 36 42 44 45 45 46 45 45 41 33 32 35 27 26 34 44 37 34 29 27 22 31 36 39 40 47 52 57 56
43 33 29 37 41 45 51 51 40 43 36 40 52 42 31 36 19 29 40 46 41 43 32 33 37 40 44 25 28 26 25 31 42 37 26 20 23 25 29 36 36 40 46 50 52
43 35 24 20 31 35 41 16 14 17 33 31 31 30 25 31 27 25 29 39 47 11 42 30 41 27 24 38 39 31 24 9 40 35 26 19 17 18 23 30 32 33 41 43 48
36 25 14 14 21 28 25 20 26 34 32 34 51 47 40 34 37 29 20 25 9 60 44 45 52 39 42 46 38 34 28 48 40 44 16 18 14 18 22 24 29 29 30 38 44
28 15 17 20 22 27 28 27 34 39 11 13 33 42 37 21 36 38 12 29 69 51 68 68 66 27 45 53 44 41 39 49 41 38 33 17 57 27 26 24 26 28 26 30 36
25 15 24 27 34 36 33 30 34 36 17 16 9 22 24 33 67 18 12 25 39 61 68 76 70 65 57 59 58 56 49 53 41 37 36 16 15 41 29 21 20 25 33 32 31
31 18 30 30 27 32 30 25 28 37 23 24 19 24 26 28 37 17 20 23 79 77 56 79 74 60 62 65 59 62 59 51 50 47 44 42 32 23 32 21 14 20 29 36 36
32 15 31 31 30 28 27 26 31 33 25 29 26 23 21 10 26 25 20 16 71 76 85 92 84 76 64 67 62 60 63 58 54 50 45 18 31 33 42 37 39 21 25 33 39
27 17 29 25 26 23 27 31 30 24 28 28 26 26 25 20 12 24 28 20 30 38 57 66 59 69 53 74 73 46 71 69 65 57 53 41 49 11 43 36 35 35 23 35 50
27 19 29 26 21 24 28 29 22 27 24 30 19 20 23 21 18 18 12 15 20 47 74 70 59 23 26 43 71 75 75 76 69 66 17 31 50 18 30 31 33 36 38 30 49
26 23 26 43 30 26 29 26 22 24 16 22 23 18 22 15 11 14 10 29 36 41 56 64 68 72 56 37 47 67 75 75 87 83 78 47 12 52 12 30 35 39 33 18 38
22 23 41 39 24 29 28 23 22 20 17 20 21 20 22 11 27 30 17 30 32 39 51 60 71 62 54 38 46 64 68 74 57 86 87 78 60 52 15 18 32 35 33 18 20
25 26 36 32 26 27 21 28 23 23 15 16 14 13 15 13 2 7 3 33 37 56 54 61 72 72 63 45 57 59 42 57 80 79 79 79 77 62 28 21 31 30 33 28 4
24 21 39 29 22 24 24 26 25 18 20 15 12 6 5 12 7 7 7 31 34 51 61 62 61 71 75 59 43 60 63 57 51 77 79 90 83 26 26 20 25 28 33 32 37
27 33 42 29 24 32 31 21 24 29 29 27 21 25 26 22 32 28 26 38 48 55 55 56 41 53 45 59 66 49 60 65 74 76 82 80 80 79 41 19 23 30 34 34 35
17 30 41 40 41 33 37 28 26 31 27 30 25 28 23 28 24 27 29 35 36 45 47 56 64 71 80 84 82 70 61 60 68 70 68 74 78 70 27 27 31 34 36 35 34
46 40 39 41 42 45 40 38 37 39 39 40 34 28 41 42 46 43 42 49 46 47 54 49 65 77 91 94 95 95 85 83 81 75 84 72 65 66 64 22 35 42 39 39 38
46 46 48 29 34 43 33 41 41 43 46 38 41 45 46 44 47 55 59 55 57 65 63 59 69 72 90 88 97 105 99 102 105 95 97 95 94 78 72 68 49 45 44 46 44
55 47 40 36 45 46 45 46 47 48 43 35 41 45 48 49 55 55 55 62 63 65 61 65 71 77 93 84 89 110 95 99 103 110 104 108 107 90 86 87 79 61 51 53 50
Wind_Direction
281 278 275 272 274 274 270 265 259 259 254 249 225 213 204 182 178 152 150 163 161 138 164 153 162 168 175 188 178 191 174 9 50 45 40 57 48 17 349 24 22 330 323 106 111
287 280 276 276 272 274 273 267 263 261 260 252 225 204 195 183 165 151 151 158 142 134 158 161 159 170 179 161 168 163 137 347 260 336 42 67 81 57 67 34 354 331 28 94 118
292 287 280 273 274 272 272 270 265 263 262 257 232 207 202 195 167 143 143 142 138 144 169 195 199 165 162 159 203 211 354 224 106 279 163 65 110 121 166 320 110 109 88 112 122
290 288 284 280 271 270 270 271 268 262 258 251 240 220 210 186 125 230 141 143 146 158 164 175 153 168 115 319 212 168 35 94 110 86 95 95 127 144 167 241 127 113 125 127 134
275 283 284 282 278 269 267 269 271 265 258 252 240 240 223 161 348 207 165 155 159 166 153 158 180 262 75 110 127 116 76 103 109 109 124 108 125 142 130 154 127 106 134 136 144
277 273 270 278 279 276 268 266 269 268 260 255 245 248 237 169 267 243 158 147 172 168 176 203 214 239 157 136 178 23 118 101 84 114 120 133 132 142 113 133 138 137 138 142 152
285 278 273 269 267 275 273 267 267 266 264 263 256 265 242 289 253 245 209 173 195 197 211 235 248 203 213 159 87 113 120 102 64 87 107 138 136 138 112 130 135 142 144 145 150
281 274 276 273 267 266 271 272 265 267 269 279 284 277 274 269 255 252 226 205 222 222 230 250 242 216 192 217 270 50 226 65 28 53 74 123 102 122 117 132 136 148 153 159 159
280 269 263 268 262 263 265 268 268 271 275 288 291 282 274 279 267 245 238 235 239 227 233 245 229 197 202 37 139 25 40 24 57 44 47 107 267 84 122 134 137 153 157 167 167
281 267 256 255 253 252 257 257 279 274 278 273 263 279 285 287 288 274 261 256 269 272 193 183 193 204 300 216 311 287 287 65 20 36 63 80 152 69 120 141 139 147 157 161 165
280 266 245 224 233 236 263 26 11 334 274 276 297 273 303 292 291 293 280 274 268 296 205 172 215 201 183 299 288 243 209 128 17 30 52 120 114 122 116 145 145 138 157 159 165
278 253 200 157 186 202 111 81 336 284 309 278 268 275 286 287 285 289 289 286 298 224 203 205 211 232 312 278 246 231 210 329 331 284 174 108 212 108 130 136 146 144 143 158 162
274 217 160 139 165 114 104 36 276 274 40 339 288 281 288 285 285 286 270 279 253 273 244 246 234 319 319 264 239 235 278 295 266 260 247 25 303 147 115 108 136 150 145 151 159
279 171 133 126 96 85 75 132 242 269 78 79 17 316 313 298 261 224 228 278 279 270 273 262 255 273 289 259 265 247 322 290 248 251 248 36 94 205 88 90 115 144 160 157 157
302 160 123 115 135 110 129 172 190 164 32 68 44 327 318 308 316 320 196 272 252 262 278 264 270 284 282 270 287 267 274 259 250 245 245 307 324 38 182 71 82 135 158 166 162
307 198 115 108 124 133 170 176 151 127 50 79 108 113 138 15 316 323 338 186 246 266 264 263 263 272 282 278 287 282 266 250 239 230 229 69 186 328 244 6 343 108 134 162 164
288 249 107 147 134 165 175 154 130 143 94 78 101 146 150 103 70 319 312 313 298 287 279 280 270 275 281 277 275 293 255 262 247 236 236 267 273 324 245 351 345 315 109 154 167
263 166 92 104 127 159 157 155 136 79 124 54 119 160 164 46 134 146 152 186 309 291 273 279 282 271 263 274 272 264 264 263 261 250 332 268 256 6 314 24 329 331 288 127 156
237 110 75 331 45 138 158 149 111 97 112 193 204 160 173 87 130 57 114 201 329 302 292 285 278 267 285 292 283 275 269 273 264 262 257 237 207 280 357 320 320 319 322 71 131
163 165 347 306 118 150 156 164 112 140 181 183 182 55 186 22 357 220 15 342 326 315 301 287 283 282 292 299 290 282 280 272 277 256 252 258 273 278 307 345 313 313 321 333 119
165 149 322 274 149 145 150 63 90 70 102 101 140 166 189 197 162 197 299 338 322 295 300 291 269 272 287 289 289 292 283 275 270 267 266 258 262 236 301 319 303 329 305 315 103
202 148 306 253 136 94 71 59 52 68 61 61 66 120 65 15 353 310 295 325 334 311 296 289 295 282 272 287 297 286 284 288 273 265 269 263 255 316 302 307 327 325 315 311 285
254 40 339 249 82 43 42 58 37 17 19 16 17 10 0 353 342 348 341 331 319 311 310 305 303 298 295 285 280 287 283 281 276 273 266 266 261 262 300 309 319 307 312 318 307
352 14 15 29 14 23 14 24 21 14 9 3 355 350 345 336 331 322 322 327 331 319 315 305 293 285 282 276 270 290 285 280 276 271 273 267 269 253 290 293 305 300 301 303 313
344 9 12 3 1 358 359 358 357 353 352 348 351 352 342 335 329 324 321 318 314 317 307 301 293 287 278 276 274 274 276 273 271 273 268 272 274 264 259 312 305 294 289 288 299
355 355 351 12 8 357 3 357 351 348 346 343 340 336 335 330 327 320 317 312 307 305 302 298 294 293 284 282 276 271 271 269 265 268 268 268 266 268 268 270 301 295 284 282 287
350 357 3 2 354 350 346 345 343 343 348 349 342 337 331 329 325 320 314 307 303 302 300 297 293 290 284 285 282 271 269 271 271 265 267 265 263 268 268 267 277 286 281 278 280